Regional Weather Roundup
Issued by NWS

Home | Current Version | Previous Version | Text Only | Print | Product List | Glossary Off
Versions: 1 2 3 4 5 6 7 8 9 10 11 12 13 14 15 16 17 18 19 20 21 22 23 24 25 26 27 28 29 30 31 32 33 34 35 36 37 38 39 40 41 42 43 44 45 46 47 48 49 50

000
ASUS45 KTFX 010619
RWRMT
MONTANA HOURLY WEATHER ROUNDUP
NATIONAL WEATHER SERVICE GREAT FALLS MT
1119 PM MST SAT JAN 31 2015

NOTE: "FAIR" INDICATES FEW OR NO CLOUDS BELOW 12000 FEET WITH NO
SIGNIFICANT WEATHER AND/OR OBSTRUCTIONS TO VISIBILITY.

* THESE STATIONS ARE NOT UNDER NWS QUALITY CONTROL. THEY DO NOT
   REPORT WEATHER SUCH AS PRECIPITATION OR FOG.

MTZ001>007-043-010700-
WEST OF THE DIVIDE
CITY           SKY/WX    TMP DP  RH WIND       PRES   REMARKS
KALISPELL      CLOUDY    27  16  63 N9        30.25R WCI  18
MISSOULA       CLOUDY    32  25  75 N7        30.23R WCI  25
BUTTE          PTCLDY    19  12  74 CALM      30.15R
MULLAN PASS    CLOUDY    21  18  88 CALM      30.12S
* ANACONDA     PTCLDY    19  12  74 N/A        N/A
* ESSEX        N/A       16   7  67 SE6G14     N/A   WCI   7
* EUREKA APT   CLEAR     28  25  89 CALM      30.29R
* HAMILTON APT PTCLDY    27  21  78 S3        30.20R
* LIBBY APT    CLEAR     28  27  96 CALM      30.28R
* LINCOLN      N/A       11   3  70 NE3G8      N/A
* LOOKOUT PASS N/A       24  24 100 NW2        N/A
* POLSON       N/A       25  24  96 N/A        N/A
* RONAN APT    MOCLDY    28  28 100 N/A        N/A
* SEELEY LAKE  N/A       21  12  68 W2         N/A
* THOMP F APT  PTCLDY    13   9  84 NE2        N/A
$$

MTZ008-052>055-010700-
SOUTHWEST MONTANA
CITY           SKY/WX    TMP DP  RH WIND       PRES   REMARKS
BOZEMAN        CLOUDY    19  10  68 W8        30.23R WCI   9
DILLON         PTCLDY    14   9  80 E8        30.15R WCI   3
* W YELLOWSTON PTCLDY    10   7  88 N/A        N/A
* THREE FORKS  PTCLDY    18  16  92 N/A        N/A
* BOULDER HILL N/A       10   6  84 N3         N/A
* MONIDA PASS  N/A       15   6  67 N/A        N/A
* RAYNOLDS PAS N/A       16  14  92 N3         N/A
* WHITEHALL    N/A       19  10  68 E3G10      N/A
* WISE RIVER   N/A       20  11  68 SE6        N/A   WCI  12
$$

MTZ009>010-012-014-046-048-049-054-010700-
EAST SLOPES AND CENTRAL MONTANA
CITY           SKY/WX    TMP DP  RH WIND       PRES   REMARKS
CUT BANK       MOCLDY     0  -2  91 CALM      30.31S
GREAT FALLS    PTCLDY     5   3  91 CALM      30.34R
HELENA         CLOUDY    18   9  68 N7        30.29R WCI   9
MALMSTROM AFB  PTCLDY     0  -2  91 S5        30.37R WCI -11
* CONRAD       MOCLDY     0  -6  75 CALM       N/A
* DEARBORN     N/A       11   7  84 VRB7       N/A
* EAST GLACIER N/A        1  -2  87 NE1        N/A
* MONARCH      N/A        4  -1  79 NW4        N/A
* PENDROY      N/A      N/A N/A N/A W6         N/A
* ROGERS PASS  N/A        6   2  83 N/A        N/A
* SWEET GRASS  N/A        0  -3  87 N/A        N/A
* WHITE SULPH  N/A       11   3  70 NW5G12     N/A   WCI   2
$$

MTZ011-013-016-021-035-040-045-047-050-051-010700-
NORTH CENTRAL MONTANA
CITY           SKY/WX    TMP DP  RH WIND       PRES   REMARKS
HAVRE          CLOUDY     7   1  76 CALM      30.44R
LEWISTOWN      LGT SNOW   3   0  87 W8        30.29R WCI -10
* N BAR RANCH  HAZE       9   1  70 N7        30.26R VSB 3    WCI  -2
* CHINOOK      PTCLDY     5   1  83 E3        30.46R
* CHESTER      N/A        1  -4  79 N/A        N/A
* DENTON       N/A        6   3  87 N4         N/A
* GEYSER       N/A        5   2  87 W11G16     N/A   WCI -10
* JUDITH GAP   N/A        6   4  91 N17        N/A   WCI -13
* LOMA         N/A        2  -1  87 W6         N/A   WCI  -9
$$

MTZ017>020-022>027-061-062-010700-
NORTHEAST MONTANA
CITY           SKY/WX    TMP DP  RH WIND       PRES   REMARKS
GLASGOW        LGT SNOW   3  -2  79 N5        30.46R WCI  -7
GLENDIVE       CLOUDY     1  -6  72 NE10      30.40R VSB 3    WCI -15
JORDAN         MOCLDY     5   0  80 NE6       30.40R WCI  -6
SIDNEY         CLOUDY     0  -4  83 N8        30.49R WCI -14
WOLF POINT     CLOUDY     3  -6  66 E7        30.50R WCI  -9
* BEAVER HILL  N/A       -1  -5  83 N8         N/A   WCI -15
* CIRCLE       N/A        3   0  87 NE9        N/A   WCI -11
* LINDSAY DVD  N/A        0  -4  83 N4         N/A
* NAVAJO       N/A       -4  -8  83 NE6        N/A   WCI -17
* PLENTYWOOD A PTCLDY    -2  -9  72 N6        30.47R WCI -14
* POPLAR APT   CLOUDY     1  -8  65 N/A       30.49R
* SACO         N/A        3  -2  79 N6         N/A   WCI  -8
$$

MTZ028>042-056>058-010700-
SOUTHCENTRAL AND SOUTHEAST MONTANA
CITY           SKY/WX    TMP DP  RH WIND       PRES   REMARKS
BAKER          CLOUDY     1  -2  87 NE7       30.31R WCI -12
BILLINGS       LGT SNOW  12   9  88 NE7       30.30R VSB 2    WCI   1
LIVINGSTON     LGT SNOW  18  10  71 W7        30.20R WCI   9
MILES CITY     LGT SNOW   5   1  83 N7        30.37R VSB 2    WCI  -7
* BIG TIMBER A CLOUDY    14  10  84 CALM      30.23R
* FORSYTH APT  PTCLDY     7   3  83 NW7       30.38R WCI  -5
* LAUREL APT   MOCLDY    12   5  73 N6         N/A   WCI   2
* ROUNDUP APT  CLOUDY     9   1  70 NE6        N/A   WCI  -1
* ALZADA       N/A        9   6  87 N8         N/A   WCI  -3
* HYSHAM       N/A        7   4  87 NE4        N/A
* LAME DEER    N/A        4   0  83 NW7        N/A   WCI  -8
* REED POINT   N/A       16  11  81 E7         N/A   WCI   6
* ROSCOE HILL  N/A       11   8  88 NW4        N/A
$$

REGIONAL REPORTS...DAKOTAS
CITY           SKY/WX    TMP DP  RH WIND       PRES   REMARKS
WILLISTON      CLOUDY    -2 -11  65 NE9       30.48R WCI -18
DICKINSON      LGT SNOW  -2  -8  75 NE13      30.33R VSB 2    WCI -21
BEACH          LGT SNOW   1   0  95 NE7       30.35R WCI -12
CROSBY         CLEAR     -4 -13  65 E3        30.51R
TIOGA          FAIR      -8 -11  86 NE6       30.47R WCI -21
WATFORD CITY   CLEAR     -2  -9  72 NE8       30.43R WCI -17
BISMARCK       LGT SNOW  -2  -9  72 N12       30.43S VSB 1 1/2 WCI -20
GRAND FORKS    PTCLDY    -8 -17  64 N14       30.55R WCI -29
FARGO          CLOUDY     0  -9  65 N18       30.44R WCI -21
BUFFALO SD     PTCLDY     5   0  80 NE16      30.17R WCI -14
RAPID CITY     LGT SNOW  10   9  96 N14       30.17R WCI  -6
$$

REGIONAL REPORTS...WYOMING/IDAHO/WASHINGTON
CITY           SKY/WX    TMP DP  RH WIND       PRES   REMARKS
GILLETTE       FOG       16  12  84 N22       30.13R WCI  -2
SHERIDAN       CLOUDY    16   9  74 NW20      30.23R WCI  -1
CODY           CLOUDY    16  16 100 NE12      30.14S WCI   3
YELLOWSTONE LA PTCLDY     7   3  83 CALM      30.09R
SALMON         CLOUDY    21  18  88 CALM      30.23S
MULLAN PASS    CLOUDY    21  18  88 CALM      30.12S
SAND POINT     FOG       32  32 100 CALM      30.30R
SPOKANE        CLOUDY    30  28  92 N3        30.28S
$$

REGIONAL REPORTS...ALBERTA
CITY           SKY/WX    TMP DP  RH WIND       PRES   REMARKS
CALGARY        N/A        1  -2  87 S6        30.26F WCI -11
LETHBRIDGE     CLEAR     -8 -13  78 S8        30.36F WCI -24
MEDICINE HAT   CLEAR     -2  -6  83 E2        30.45S
EDMONTON       PTCLDY    -2  -6  83 S8        30.35F WCI -17
WATERTON GATE  N/A       -8 -11  86 NE1        N/A
CARDSTON       N/A       -4  -6  91 S2         N/A
MILK RIVER     N/A       -9 -13  82 CALM       N/A
$$

REGIONAL REPORTS...SASKATCHEWAN
CITY           SKY/WX    TMP DP  RH WIND       PRES   REMARKS
SWIFT CURRENT  CLEAR     -8 -11  86 SE5       30.41S WCI -20
REGINA         MOCLDY    -8 -13  78 NW3       30.52S
VAL MARIE      N/A        0  -4  83 NE3        N/A
ASSINIBOIA     N/A       -4  -9  79 NE3        N/A
CORONACH       N/A       -4  -8  83 N5         N/A   WCI -15

$$



USA.gov is the U.S. government's official web portal to all federal, state and local government web resources and services.